Flag for Germany Weather past 2 weeks in Friedrichshafen, Baden-Württemberg, Germany

Now
77 °F

Partly sunny.


Feels Like: 79 °F
Forecast: 56 / 75 °F
Wind: 18 mph from Northeast

Location: Friedrichshafen Airport

Current Time: Jul 23, 2014 at 3:45:10 PM

Latest Report: Jul 23, 2014 at 2:50 PM


Visibility: N/A

Pressure: 29.92 "Hg

Humidity: 47%

Dew point: 55 °F

Location of FriedrichshafenLocation

Historic Weather in Friedrichshafen — Graph

°F

Friedrichshafen temperature yesterday

Maximum temperature yesterday: 68 °F (at 2:50 PM)
Minimum temperature yesterday: 61 °F (at 1:50 AM)
Average temperature yesterday: 64 °F

Past Weeks' High & Low Weather Summary

 TemperatureHumidityPressure
High91 °F (Jul 19, 4:50 PM)94% (Jul 11, 11:50 PM)30.21 "Hg (Jul 11, 11:50 PM)
Low50 °F (Jul 10, 7:20 AM)24% (Jul 19, 4:50 PM)29.83 "Hg (Jul 10, 2:20 AM)
Average65 °F71%29.99 "Hg
* Reported Jul 8 2:20 PM — Jul 23 2:20 PM, Friedrichshafen, Weather by CustomWeather, © 2014

Note: Actual official high and low records may vary slightly from our data, if they occured in-between our weather recording intervals... More about our weather records

Advertising

Friedrichshafen weather history for previous 24 hours

 ConditionsComfort  
Time TempWeatherWind HumidityBarometerVisibility
2:20 PM
Jul 23
77 °FOvercast.18 mph47%29.95 "HgN/A
1:20 PM75 °FPartly sunny.14 mph54%29.95 "HgN/A
12:50 PM75 °FScattered clouds.12 mph57%29.95 "HgN/A
12:20 PM75 °FPassing clouds.8 mph61%29.95 "HgN/A
10:50 AM68 °FPartly sunny.7 mph73%29.98 "HgN/A
10:20 AM68 °FPartly sunny.6 mph78%29.98 "HgN/A
9:50 AM64 °FLow clouds.6 mph83%30.01 "Hg4 mi
7:50 AM63 °FFog.5 mph88%30.01 "Hg2 mi
7:20 AM63 °FFog.3 mph88%30.01 "Hg2 mi
6:50 AM63 °FFog.3 mph88%30.01 "Hg1 mi
6:20 AM63 °FFog.5 mph88%30.01 "Hg1 mi
5:50 AM63 °FThunderstorms. Low clouds.26 mph88%30.01 "Hg1 mi
5:20 AM63 °FFog.1 mph88%30.01 "Hg2 mi
4:50 AM63 °FMild.5 mph88%30.01 "Hg1 mi
4:20 AM63 °FMild.3 mph94%30.01 "Hg1 mi
3:50 AM63 °FFog.3 mph94%30.01 "Hg1 mi
3:20 AM63 °FFog.2 mph94%30.01 "Hg1 mi
2:50 AM63 °FMild.2 mph94%30.01 "Hg1 mi
2:20 AM63 °FMild.2 mph94%30.01 "Hg0 mi
1:50 AM63 °FFog.3 mph94%30.01 "Hg1 mi
6:50 PM
Jul 22
66 °FMore clouds than sun.5 mph83%29.98 "HgN/A
6:20 PM68 °FCloudy.No wind78%29.98 "HgN/A
5:50 PM66 °FSprinkles. Mostly cloudy.2 mph83%29.98 "HgN/A
5:20 PM66 °FLight rain. More clouds than sun.3 mph83%29.95 "HgN/A
4:50 PM68 °FMostly cloudy.3 mph78%29.95 "HgN/A
4:20 PM66 °FCloudy.7 mph83%29.95 "HgN/A
3:50 PM68 °FMostly cloudy.7 mph78%29.95 "HgN/A
3:20 PM68 °FPartly sunny.7 mph83%29.95 "HgN/A
Weather by CustomWeather, © 2014

See weather overviewHow to use our weather pages